This is the latest recevied weather packets stored in our database for station/object DL9OAC-5. If no packets are shown the sender has not sent any weather packets the latest 10 day(s).
| Time | Temp. | Humidity | Pressure | Rain* | Wind** | Luminosity | Snow |
|---|---|---|---|---|---|---|---|
| 1777025040 | 25.56° C | 29% | 1017.8 hPa | - | - | - | - |
| 1777024740 | 26.67° C | 28% | 1017.9 hPa | - | - | - | - |
| 1777024140 | 29.44° C | 30% | 1017.6 hPa | - | - | - | - |
| 1777023840 | 29.44° C | 30% | 1017.5 hPa | - | - | - | - |
| 1777023540 | 29.44° C | 30% | 1017.7 hPa | - | - | - | - |
| 1777023240 | 29.44° C | 30% | 1017.7 hPa | - | - | - | - |
| 1777022940 | 29.44° C | 30% | 1017.7 hPa | - | - | - | - |
| 1777022640 | 29.44° C | 30% | 1017.7 hPa | - | - | - | - |
| 1777022340 | 28.89° C | 30% | 1017.7 hPa | - | - | - | - |
| 1777021740 | 28.89° C | 30% | 1017.7 hPa | - | - | - | - |
| 1777021439 | 28.89° C | 30% | 1017.8 hPa | - | - | - | - |
| 1777021140 | 28.33° C | 30% | 1017.8 hPa | - | - | - | - |
| 1777020539 | 28.33° C | 31% | 1018 hPa | - | - | - | - |
| 1777020240 | 28.33° C | 31% | 1017.9 hPa | - | - | - | - |
| 1777019940 | 28.33° C | 31% | 1018 hPa | - | - | - | - |
| 1777019639 | 27.78° C | 31% | 1017.9 hPa | - | - | - | - |
| 1777019339 | 27.78° C | 31% | 1017.9 hPa | - | - | - | - |
| 1777018739 | 27.78° C | 31% | 1017.9 hPa | - | - | - | - |
| 1777017539 | 27.78° C | 31% | 1017.8 hPa | - | - | - | - |
| 1777017239 | 27.78° C | 31% | 1017.7 hPa | - | - | - | - |
| 1777016939 | 27.78° C | 31% | 1017.7 hPa | - | - | - | - |
| 1777016639 | 27.78° C | 31% | 1017.7 hPa | - | - | - | - |
| 1777015739 | 27.78° C | 32% | 1017.6 hPa | - | - | - | - |
| 1777015439 | 27.78° C | 32% | 1017.7 hPa | - | - | - | - |
| 1777015139 | 27.78° C | 32% | 1017.6 hPa | - | - | - | - |
* Rain since midnight (hover to see other rain measurements)
** Current wind speed in m/s (hover to see current wind gust speed)